Weather History for Solander Island, BC

Change the Weather History Date:

Saturday, January 12, 2013

  Actual Average Record
Temperature  
Mean Temperature 40 °F -  
Max Temperature 46 °F - - ()
Min Temperature 35 °F - - ()
Degree Days  
Heating Degree Days 24    
Moisture  
Dew Point 33 °F    
Average Humidity 74    
Maximum Humidity 85    
Minimum Humidity 65    
Precipitation  
Precipitation 0.00 in - - ()
Sea Level Pressure  
Sea Level Pressure 30.38 in    
Wind  
Wind Speed 11 mph ()    
Max Wind Speed 17 mph    
Max Gust Speed -    
T = Trace of Precipitation, MM = Missing Value Source: Averaged Metar Reports

Daily Weather History Graph

Daily Weather History Graph

Search for Another Location

Airport:

Trip Planner

Search our weather history database for the weather conditions in past years. The results will help you decide how hot, cold, wet, or windy it might be!

Date:

Astronomy

Jan. 12, 2013 Rise Set
Actual Time 8:26 AM PST 4:54 PM PST
Civil Twilight 7:49 AM PST 5:31 PM PST
Nautical Twilight 7:08 AM PST 6:12 PM PST
Astronomical Twilight 6:29 AM PST 6:51 PM PST
Moon 8:38 AM PST (1/12) 6:44 PM PST (1/12)
Length of Visible Light 9h 42m
Length of Day
8h 27m
New Moon, 2% of the Moon is Illuminated
Jan 12
New Moon
Jan 18
First Quarter
Jan 26
Full
Feb 3
Last Quarter
Feb 9
New

Hourly Weather History & Observations

Time (PST) Temp. Windchill Dew Point Humidity Pressure Visibility Wind Dir Wind Speed Gust Speed Precip Events Conditions
12:00 AM 38.8 °F 29.7 °F 32.0 °F 76% 30.28 in - East 17.3 mph - N/A   Unknown
1:00 AM 39.0 °F 29.9 °F 31.5 °F 74% 30.29 in - East 17.3 mph - N/A   Unknown
2:00 AM 38.8 °F 30.0 °F 31.6 °F 75% 30.30 in - East 16.1 mph - N/A   Unknown
3:00 AM 39.0 °F 31.0 °F 30.9 °F 73% 30.32 in - East 13.8 mph - N/A   Unknown
4:00 AM 39 °F - 31 °F 65% 30.32 in - East 13.8 mph - -  
4:00 AM 38.7 °F 30.5 °F 31.3 °F 75% 30.32 in - East 13.8 mph - N/A   Unknown
5:00 AM 39.0 °F 31.4 °F 31.3 °F 74% 30.32 in - East 12.7 mph - N/A   Unknown
6:00 AM 39.0 °F 31.8 °F 30.7 °F 72% 30.33 in - East 11.5 mph - N/A   Unknown
7:00 AM 38.7 °F 31.8 °F 31.3 °F 75% 30.34 in - East 10.4 mph - N/A   Unknown
8:00 AM 38.8 °F 32.6 °F 32.0 °F 76% 30.36 in - East 9.2 mph - N/A   Unknown
9:00 AM 39.6 °F 35.4 °F 31.5 °F 73% 30.38 in - East 5.8 mph - N/A   Unknown
10:00 AM 40 °F - 34 °F 71% 30.39 in - NE 3.5 mph - -  
10:00 AM 39.7 °F 37.6 °F 33.8 °F 79% 30.39 in - NE 3.5 mph - N/A   Unknown
11:00 AM 43.5 °F 41.9 °F 34.9 °F 72% 30.40 in - East 3.5 mph - N/A   Unknown
12:00 PM 41.5 °F - 31.3 °F 67% 30.41 in - North 2.3 mph - N/A   Unknown
1:00 PM 44.2 °F - 35.4 °F 71% 30.40 in - WNW 2.3 mph - N/A   Unknown
2:00 PM 42.1 °F 40.2 °F 33.8 °F 72% 30.40 in - NW 3.5 mph - N/A   Unknown
3:00 PM 42.3 °F 37.9 °F 33.1 °F 70% 30.41 in - NW 6.9 mph - N/A   Unknown
4:00 PM 41 °F - 33 °F 65% 30.41 in - WNW 9.2 mph - -  
4:00 PM 41.4 °F 35.7 °F 33.3 °F 73% 30.41 in - WNW 9.2 mph - N/A   Unknown
5:00 PM 41.0 °F 33.9 °F 31.8 °F 70% 30.42 in - NW 12.7 mph - N/A   Unknown
6:00 PM 41.2 °F 33.0 °F 34.3 °F 77% 30.41 in - North 16.1 mph - N/A   Unknown
7:00 PM 40.1 °F 32.4 °F 34.5 °F 80% 30.43 in - North 13.8 mph - N/A   Unknown
8:00 PM 40.5 °F 32.5 °F 34.2 °F 78% 30.42 in - North 15.0 mph - N/A   Unknown
9:00 PM 40.1 °F 32.0 °F 34.0 °F 79% 30.42 in - North 15.0 mph - N/A   Unknown
10:00 PM 39 °F - 35 °F 80% 30.43 in - North 12.7 mph - -  
10:00 PM 39.2 °F 31.6 °F 35.1 °F 85% 30.43 in - North 12.7 mph - N/A   Unknown
11:00 PM 39.2 °F 31.6 °F 34.3 °F 83% 30.43 in - North 12.7 mph - N/A   Unknown